Zurück zum Katalog

COSMOS 2391 DEB

LostPO
NORAD 27546·DEBRIS·🇷🇺 Russia

Gestartet Jul 8, 2002 von Plesetsk Cosmodrome

Loading…

Nächste Überflüge (nächste 24 Stunden)

TLE

VeraltetSource: Space-Track

Epoche: Sep 29, 2013, 14:00 UTC

1 27546U 02036E   13272.58363000  .00000033  00000-0  16221-3 0  9996
2 27546  82.4827   5.9729 0021433 325.5136  93.0569 12.45079571498977

Verfolge COSMOS 2391 DEB in Echtzeit mit AllMySat

Download on the App Store